Weather History for KEHC - March, 2014

Change the Weather History Date:

Friday, March 7, 2014

  Actual Average Record
Temperature  
Mean Temperature 58 °F -  
Max Temperature 64 °F - - ()
Min Temperature 53 °F - - ()
Degree Days  
Heating Degree Days 8    
Growing Degree Days 8 (Base 50)    
Moisture  
Dew Point 47 °F    
Average Humidity 69    
Maximum Humidity 77    
Minimum Humidity 55    
Precipitation  
Precipitation 0.00 in - - ()
Sea Level Pressure  
Sea Level Pressure 30.05 in    
Wind  
Wind Speed 13 mph (East)    
Max Wind Speed 21 mph    
Max Gust Speed 22 mph    
Visibility 10 miles    
Events      
T = Trace of Precipitation, MM = Missing Value Source: NWS Daily Summary

Daily Weather History Graph

Daily Weather History Graph

Search for Another Location

Airport or City:

Trip Planner

Search our weather history database for the weather conditions in past years. The results will help you decide how hot, cold, wet, or windy it might be!

Date:

Astronomy

Mar. 07, 2014 Rise Set
Actual Time 6:29 AM CST 6:15 PM CST
Civil Twilight 6:06 AM CST 6:38 PM CST
Nautical Twilight 5:39 AM CST 7:06 PM CST
Astronomical Twilight 5:11 AM CST 7:33 PM CST
Moon 10:53 AM CST (3/7) No Moon Set
Length of Visible Light 12h 32m
Length of Day
11h 45m
Waxing Crescent, 42% of the Moon is Illuminated
Mar 7
Waxing Crescent
Mar 8
First Quarter
Mar 16
Full
Mar 23
Last Quarter
Mar 30
New

Hourly Weather History & Observations

Time (CST) Temp. Dew Point Humidity Pressure Visibility Wind Dir Wind Speed Gust Speed Precip Events Conditions
12:15 AM 55.4 °F 46.4 °F 72% 30.06 in 10.0 mi NNE 17.3 mph - N/A   Clear
12:35 AM 55.4 °F 46.4 °F 72% 30.06 in 10.0 mi NNE 20.7 mph - N/A   Partly Cloudy
12:55 AM 53.6 °F 44.6 °F 72% 30.06 in 10.0 mi North 20.7 mph - N/A   Partly Cloudy
1:15 AM 53.6 °F 44.6 °F 72% 30.06 in 10.0 mi NNE 17.3 mph - N/A   Clear
1:35 AM 53.6 °F 44.6 °F 72% 30.06 in 10.0 mi NNE 15.0 mph 21.9 mph N/A   Clear
1:55 AM 53.6 °F 44.6 °F 72% 30.06 in 10.0 mi North 16.1 mph - N/A   Clear
2:15 AM 53.6 °F 44.6 °F 72% 30.05 in 10.0 mi NNE 15.0 mph - N/A   Partly Cloudy
2:35 AM 53.6 °F 44.6 °F 72% 30.05 in 10.0 mi North 16.1 mph - N/A   Clear
2:55 AM 53.6 °F 44.6 °F 72% 30.05 in 10.0 mi North 11.5 mph - N/A   Partly Cloudy
3:15 AM 53.6 °F 44.6 °F 72% 30.05 in 10.0 mi North 13.8 mph - N/A   Clear
3:35 AM 53.6 °F 42.8 °F 67% 30.04 in 10.0 mi North 15.0 mph - N/A   Clear
3:55 AM 53.6 °F 42.8 °F 67% 30.04 in 10.0 mi North 15.0 mph - N/A   Clear
4:15 AM 53.6 °F 44.6 °F 72% 30.04 in 10.0 mi North 13.8 mph - N/A   Partly Cloudy
4:35 AM 53.6 °F 44.6 °F 72% 30.04 in 10.0 mi North 13.8 mph - N/A   Clear
4:55 AM 53.6 °F 42.8 °F 67% 30.04 in 10.0 mi North 12.7 mph - N/A   Clear
5:15 AM 53.6 °F 44.6 °F 72% 30.05 in 10.0 mi NNE 12.7 mph - N/A   Clear
5:35 AM 53.6 °F 44.6 °F 72% 30.05 in 10.0 mi NE 12.7 mph - N/A   Clear
5:55 AM 53.6 °F 46.4 °F 77% 30.06 in 10.0 mi NE 12.7 mph - N/A   Partly Cloudy
6:15 AM 53.6 °F 46.4 °F 77% 30.06 in 10.0 mi NE 11.5 mph - N/A   Scattered Clouds
6:35 AM 53.6 °F 46.4 °F 77% 30.06 in 10.0 mi ENE 11.5 mph - N/A   Scattered Clouds
6:55 AM 53.6 °F 46.4 °F 77% 30.06 in 10.0 mi ENE 12.7 mph - N/A   Partly Cloudy
7:15 AM 53.6 °F 46.4 °F 77% 30.07 in 10.0 mi NE 10.4 mph - N/A   Partly Cloudy
7:35 AM 53.6 °F 46.4 °F 77% 30.08 in 10.0 mi NE 10.4 mph - N/A   Scattered Clouds
7:55 AM 53.6 °F 46.4 °F 77% 30.08 in 10.0 mi ENE 11.5 mph - N/A   Mostly Cloudy
8:15 AM 53.6 °F 46.4 °F 77% 30.09 in 9.0 mi ENE 8.1 mph - N/A   Scattered Clouds
8:35 AM 53.6 °F 46.4 °F 77% 30.10 in 7.0 mi ENE 8.1 mph - N/A   Partly Cloudy
8:55 AM 53.6 °F 46.4 °F 77% 30.10 in 7.0 mi NE 8.1 mph - N/A   Partly Cloudy
9:15 AM 53.6 °F 46.4 °F 77% 30.10 in 8.0 mi ENE 8.1 mph - N/A   Scattered Clouds
9:35 AM 55.4 °F 46.4 °F 72% 30.11 in 8.0 mi ENE 5.8 mph - N/A   Partly Cloudy
9:55 AM 55.4 °F 46.4 °F 72% 30.12 in 9.0 mi ENE 5.8 mph - N/A   Clear
10:15 AM 55.4 °F 46.4 °F 72% 30.13 in 9.0 mi Calm Calm - N/A   Clear
10:35 AM 57.2 °F 46.4 °F 67% 30.13 in 10.0 mi Variable 4.6 mph - N/A   Clear
10:55 AM 57.2 °F 46.4 °F 67% 30.12 in 10.0 mi ENE 3.5 mph - N/A   Clear
11:15 AM 57.2 °F 46.4 °F 67% 30.12 in 10.0 mi ENE 6.9 mph - N/A   Clear
11:35 AM 59.0 °F 46.4 °F 63% 30.11 in 10.0 mi East 5.8 mph - N/A   Clear
11:55 AM 59.0 °F 46.4 °F 63% 30.11 in 10.0 mi East 4.6 mph - N/A   Clear
12:15 PM 60.8 °F 46.4 °F 59% 30.10 in 10.0 mi East 4.6 mph - N/A   Clear
12:35 PM 60.8 °F 46.4 °F 59% 30.09 in 10.0 mi ENE 5.8 mph - N/A   Clear
12:55 PM 59.0 °F 46.4 °F 63% 30.07 in 10.0 mi ENE 4.6 mph - N/A   Clear
1:15 PM 60.8 °F 46.4 °F 59% 30.06 in 10.0 mi ENE 5.8 mph - N/A   Clear
1:35 PM 60.8 °F 46.4 °F 59% 30.06 in 10.0 mi ENE 4.6 mph - N/A   Clear
1:55 PM 60.8 °F 46.4 °F 59% 30.05 in 10.0 mi ENE 6.9 mph - N/A   Clear
2:15 PM 62.6 °F 46.4 °F 55% 30.04 in 10.0 mi East 6.9 mph - N/A   Clear
2:35 PM 60.8 °F 46.4 °F 59% 30.04 in 10.0 mi Variable 5.8 mph - N/A   Clear
2:55 PM 62.6 °F 48.2 °F 59% 30.04 in 10.0 mi East 5.8 mph - N/A   Clear
3:15 PM 62.6 °F 48.2 °F 59% 30.04 in 10.0 mi ESE 4.6 mph - N/A   Clear
3:35 PM 62.6 °F 48.2 °F 59% 30.04 in 10.0 mi ESE 5.8 mph - N/A   Clear
3:55 PM 62.6 °F 48.2 °F 59% 30.02 in 10.0 mi ESE 9.2 mph - N/A   Partly Cloudy
4:15 PM 60.8 °F 48.2 °F 63% 30.01 in 10.0 mi ESE 8.1 mph - N/A   Partly Cloudy
4:35 PM 60.8 °F 48.2 °F 63% 30.01 in 10.0 mi ESE 9.2 mph - N/A   Clear
4:55 PM 60.8 °F 48.2 °F 63% 30.01 in 10.0 mi ESE 9.2 mph - N/A   Clear
5:15 PM 60.8 °F 48.2 °F 63% 30.01 in 10.0 mi ESE 8.1 mph - N/A   Partly Cloudy
5:35 PM 59.0 °F 48.2 °F 67% 30.01 in 10.0 mi SE 9.2 mph - N/A   Partly Cloudy
5:55 PM 59.0 °F 48.2 °F 67% 30.01 in 10.0 mi SE 10.4 mph - N/A   Partly Cloudy
6:15 PM 57.2 °F 48.2 °F 72% 30.01 in 10.0 mi ESE 9.2 mph - N/A   Scattered Clouds
6:35 PM 59.0 °F 48.2 °F 67% 30.00 in 10.0 mi SE 13.8 mph - N/A   Mostly Cloudy
6:55 PM 57.2 °F 48.2 °F 72% 30.00 in 10.0 mi ESE 12.7 mph 19.6 mph N/A   Scattered Clouds
7:15 PM 57.2 °F 48.2 °F 72% 30.01 in 10.0 mi ESE 13.8 mph - N/A   Scattered Clouds
7:35 PM 57.2 °F 50.0 °F 77% 30.01 in 10.0 mi SE 12.7 mph - N/A   Unknown
7:55 PM 57.2 °F 50.0 °F 77% 30.01 in 10.0 mi ESE 12.7 mph - N/A   Unknown
8:15 PM 59.0 °F 50.0 °F 72% 30.01 in 10.0 mi SE 13.8 mph - N/A   Unknown
8:35 PM 57.2 °F 50.0 °F 77% 30.01 in 10.0 mi ESE 13.8 mph - N/A   Unknown
8:55 PM 59.0 °F 50.0 °F 72% 30.01 in 10.0 mi SE 16.1 mph - N/A   Unknown
9:15 PM 59.0 °F 50.0 °F 72% 30.01 in 10.0 mi SE 15.0 mph - N/A   Unknown
9:35 PM 60.8 °F 50.0 °F 68% 30.02 in 10.0 mi SE 15.0 mph - N/A   Unknown
9:55 PM 60.8 °F 50.0 °F 68% 30.02 in 10.0 mi SE 16.1 mph - N/A   Overcast
10:15 PM 60.8 °F 50.0 °F 68% 30.02 in 10.0 mi SE 15.0 mph - N/A   Mostly Cloudy
10:35 PM 62.6 °F 50.0 °F 63% 30.02 in 10.0 mi SE 16.1 mph - N/A   Mostly Cloudy
10:55 PM 62.6 °F 51.8 °F 68% 30.02 in 10.0 mi SE 18.4 mph - N/A   Mostly Cloudy
11:15 PM 62.6 °F 51.8 °F 68% 30.03 in - SSE 12.7 mph 19.6 mph N/A   Unknown
11:35 PM 62.6 °F 50.0 °F 63% 30.03 in 10.0 mi SSE 15.0 mph - N/A   Overcast
11:55 PM 64.4 °F 50.0 °F 59% 30.02 in 10.0 mi South 15.0 mph 20.7 mph N/A   Overcast